This is the latest recevied weather packets stored in our database for station/object VK3MAK-1. If no packets are shown the sender has not sent any weather packets the latest 10 day(s).
| Time | Temp. | Humidity | Pressure | Rain* | Wind** | Luminosity | Snow |
|---|---|---|---|---|---|---|---|
| 1777942803 | 12.78° C | 10% | - | 0 mm | 4.02 m/s, 270° | - | - |
| 1777942203 | 12.78° C | 10% | - | 0 mm | 4.02 m/s, 270° | - | - |
| 1777941603 | 12.78° C | 10% | - | 0 mm | 4.02 m/s, 270° | - | - |
| 1777941003 | 12.22° C | 97% | 1021 hPa | 0 mm | 3.13 m/s, 270° | - | - |
| 1777940403 | 12.22° C | 97% | 1021 hPa | 0 mm | 3.13 m/s, 270° | - | - |
| 1777939803 | 12.22° C | 97% | 1021 hPa | 0 mm | 3.13 m/s, 270° | - | - |
| 1777939203 | 11.67° C | 10% | - | 0 mm | 2.68 m/s, 293° | - | - |
| 1777938603 | 11.67° C | 10% | - | 0 mm | 2.68 m/s, 293° | - | - |
| 1777938003 | 11.67° C | 10% | - | 0 mm | 2.68 m/s, 293° | - | - |
| 1777937403 | 11.11° C | 10% | - | 0 mm | 3.13 m/s, 293° | - | - |
| 1777936804 | 11.11° C | 10% | - | 0 mm | 3.13 m/s, 293° | - | - |
| 1777936204 | 11.11° C | 10% | - | 0 mm | 3.13 m/s, 293° | - | - |
| 1777935604 | 10.56° C | 10% | - | 0 mm | 2.24 m/s, 293° | - | - |
| 1777935004 | 10.56° C | 10% | - | 0 mm | 2.24 m/s, 293° | - | - |
| 1777934403 | 10.56° C | 10% | - | 0 mm | 2.24 m/s, 293° | - | - |
| 1777933803 | 10° C | 10% | - | 0 mm | 1.79 m/s, 315° | - | - |
| 1777933203 | 10° C | 10% | - | 0 mm | 1.79 m/s, 315° | - | - |
| 1777932604 | 10° C | 10% | - | 0 mm | 1.79 m/s, 315° | - | - |
| 1777932004 | 8.89° C | 10% | - | 0 mm | 2.24 m/s, 270° | - | - |
| 1777931404 | 8.89° C | 10% | - | 0 mm | 2.24 m/s, 270° | - | - |
| 1777930803 | 8.89° C | 10% | - | 0 mm | 2.24 m/s, 270° | - | - |
| 1777930203 | 9.44° C | 10% | - | 0 mm | 2.24 m/s, 270° | - | - |
| 1777929604 | 9.44° C | 10% | - | 0 mm | 2.24 m/s, 270° | - | - |
| 1777929003 | 9.44° C | 10% | - | 0 mm | 2.24 m/s, 270° | - | - |
| 1777928403 | 10.56° C | 10% | - | 0 mm | 2.24 m/s, 270° | - | - |
* Rain latest hour (hover to see other rain measurements)
** Current wind speed in m/s (hover to see current wind gust speed)